Regional Weather Roundup
Issued by NWS

Home | Current Version | Previous Version | Text Only | Print | Product List | Glossary Off
Versions: 1 2 3 4 5 6 7 8 9 10 11 12 13 14 15 16 17 18 19 20 21 22 23 24 25 26 27 28 29 30 31 32 33 34 35 36 37 38 39 40 41 42 43 44 45 46 47 48 49 50

000
ASUS43 KLOT 051400
RWRIL

ILLINOIS REGIONAL WEATHER ROUNDUP
NATIONAL WEATHER SERVICE CHICAGO/ROMEOVILLE IL
900 AM CDT TUE MAY 05 2015

NOTE: "FAIR" INDICATES FEW OR NO CLOUDS BELOW 12,000 FEET WITH NO
SIGNIFICANT WEATHER AND/OR OBSTRUCTIONS TO VISIBILITY.

* THESE STATIONS ARE NOT UNDER NWS QUALITY CONTROL. THEY ALSO MAY NOT
  REPORT WEATHER SUCH AS PRECIPITATION OR FOG.

ILZ001-002-007-009-015-016-024-051500-
NORTHWEST ILLINOIS

CITY           SKY/WX    TMP DP  RH WIND       PRES   REMARKS
MOLINE         CLOUDY    59  57  93 E7        30.17R FOG
$$

ILZ003-004-008-010-011-017-018-051500-
NORTH CENTRAL ILLINOIS

CITY           SKY/WX    TMP DP  RH WIND       PRES   REMARKS
ROCKFORD       NOT AVBL
$$

ILZ005-006-012>014-019>023-051500-
NORTHEAST ILLINOIS

CITY           SKY/WX    TMP DP  RH WIND       PRES   REMARKS
CHICAGO-OHARE  CLOUDY    51  50  96 NE8       30.21R
CHICAGO-MIDWAY NOT AVBL
AURORA         CLOUDY    56  52  86 E9        30.20R FOG
WAUKEGAN       NOT AVBL
DUPAGE AIRPORT CLOUDY    55  53  93 E10       30.20R
WHEELING       LGT RAIN  50  48  93 E7        30.24R
NORTHERLY ISL    N/A     47  45  93 S1          N/A
$$

LMZ740>746-051500-
SOUTHERN LAKE MICHIGAN

STATION/POSITION SKY/WX   TEMP    WIND        PRES    VSBY  WAVE
                          AIR SEA DIR/SP/G                  HT/PER
                          (F)     (DEG/KT/KT) (MB)    (MI)  (FT/S)
HARRISON CRIB              46      40/ 18/ 21   N/A
BURNHAM HARBOR             48      10/  9/ 16   N/A
CALUMET HARBOR             46      10/  6/  9   N/A
BURNS HARBOR               49      70/ 12/ 14 1022.7F
MICHIGAN CITY              48      10/ 10/ 11   N/A
MICHIGAN CITY 6N           48 49   60/ 12/ 16   N/A           1/ 2
ST. JOSEPH                 51 49   60/ 12/ 14   N/A           1
$$

ILZ025>027-034>036-040-047-049-050-058-095>099-051500-
WEST-CENTRAL ILLINOIS

CITY           SKY/WX    TMP DP  RH WIND       PRES   REMARKS
$$

ILZ028>032-037-038-041>044-048-051>054-059>061-051500-
CENTRAL ILLINOIS

CITY           SKY/WX    TMP DP  RH WIND       PRES   REMARKS
PEORIA         NOT AVBL
SPRINGFIELD    SUNNY     74  58  57 S10       30.17S
TAYLORVILLE    NOT AVBL
$$

ILZ033-039-045-046-055>057-062-063-051500-
EAST-CENTRAL ILLINOIS

CITY           SKY/WX    TMP DP  RH WIND       PRES   REMARKS
$$

ILZ079-100>102-051500-
SOUTHWEST ILLINOIS

CITY           SKY/WX    TMP DP  RH WIND       PRES   REMARKS
ALTON          PTSUNNY   70 N/A N/A SW9       30.20R
$$

ILZ064>066-069>071-074>076-080>082-084>086-088>090-092>094-051500-
SOUTH-CENTRAL ILLINOIS

CITY           SKY/WX    TMP DP  RH WIND       PRES   REMARKS
CARBONDALE     MOSUNNY   71  57  61 SW7       30.23R
MARION         MOSUNNY   73  57  56 S9        30.24S
$$

ILZ067-068-072-073-078-083-087-091-051500-
SOUTHEAST ILLINOIS

CITY           SKY/WX    TMP DP  RH WIND       PRES   REMARKS
$$

ABBREVIATIONS USED IN REMARKS
   TC - TEMPERATURE IN CELSIUS
  WCI - WIND CHILL INDEX
   HX - HEAT INDEX
  VSB - VISIBILITY
$$



USA.gov is the U.S. government's official web portal to all federal, state and local government web resources and services.